Terug naar catalogus

COSMOS 2251 DEB

ActiefLEO
NORAD 35824·DEBRIS·🇷🇺 Russia

Gelanceerd Jun 16, 1993 vanaf Plesetsk Cosmodrome

Loading…

Volgende Passages (komende 24 uur)

TLE

VersSource: Space-Track

Epoch: Sep 13, 2026, 12:02 UTC

1 35824U 93036ASW 26256.50155144  .00000675  00000-0  44489-3 0  9999
2 35824  73.8426 296.0483 0253722 332.3265  26.4544 13.89270090880427

Volg COSMOS 2251 DEB in realtime met AllMySat

Download on the App Store